| time (UTC) | temp F | wind direction | speed MPH | gust MPH | rain 1hr in | rain 24hr in | rain mn in | humidity % | barometer mb |
| 20260506185732 | 58 | 3 | 5.0 | 10.0 | 0.00 | 0.00 | 0.15 | 80 | 1015.5 |
| 20260506184333 | 58 | 351 | 2.0 | 14.0 | 0.00 | 0.00 | 0.15 | 80 | 1015.1 |
| 20260506182232 | 57 | 5 | 2.0 | 14.0 | 0.00 | 0.00 | 0.15 | 81 | 1014.8 |
| 20260506181532 | 57 | 6 | 5.0 | 14.0 | 0.00 | 0.00 | 0.15 | 81 | 1014.5 |
| 20260506180833 | 57 | 340 | 8.0 | 14.0 | 0.00 | 0.00 | 0.15 | 82 | 1014.1 |
| 20260506180132 | 57 | 6 | 5.0 | 14.0 | 0.00 | 0.00 | 0.15 | 82 | 1013.8 |
| 20260506175432 | 57 | 14 | 8.0 | 10.0 | 0.00 | 0.00 | 0.15 | 82 | 1013.8 |
| 20260506174733 | 57 | 347 | 8.0 | 10.0 | 0.00 | 0.00 | 0.15 | 82 | 1014.1 |
| 20260506174032 | 57 | 6 | 5.0 | 6.0 | 0.00 | 0.00 | 0.15 | 83 | 1014.8 |
| 20260506173332 | 57 | 357 | 5.0 | 6.0 | 0.00 | 0.00 | 0.15 | 84 | 1014.5 |
| 20260506171932 | 56 | 8 | 2.0 | 10.0 | 0.00 | 0.00 | 0.15 | 84 | 1015.1 |
| 20260506171232 | 56 | 7 | 0.0 | 10.0 | 0.00 | 0.00 | 0.15 | 84 | 1015.5 |
| 20260506170532 | 56 | 10 | 2.0 | 10.0 | 0.00 | 0.00 | 0.15 | 84 | 1015.5 |
| 20260506165832 | 56 | 2 | 8.0 | 10.0 | 0.00 | 0.00 | 0.15 | 84 | 1015.1 |
| 20260506165133 | 56 | 341 | 5.0 | 10.0 | 0.00 | 0.00 | 0.15 | 83 | 1014.5 |
| 20260506164432 | 56 | 355 | 8.0 | 10.0 | 0.00 | 0.00 | 0.15 | 83 | 1014.5 |
| 20260506163732 | 56 | 14 | 14.0 | 10.0 | 0.00 | 0.00 | 0.15 | 83 | 1015.1 |
| 20260506163032 | 57 | 6 | 0.0 | 6.0 | 0.00 | 0.00 | 0.15 | 84 | 1014.8 |
| 20260506162332 | 57 | 5 | 2.0 | 6.0 | 0.00 | 0.00 | 0.15 | 85 | 1015.1 |
| 20260506161632 | 56 | 348 | 5.0 | 10.0 | 0.00 | 0.00 | 0.15 | 84 | 1015.5 |
| 20260506160932 | 56 | 33 | 0.0 | 10.0 | 0.00 | 0.00 | 0.15 | 85 | 1015.5 |
| 20260506160233 | 55 | 359 | 0.0 | 10.0 | 0.00 | 0.00 | 0.15 | 85 | 1015.5 |
| 20260506155532 | 55 | 5 | 0.0 | 10.0 | 0.00 | 0.00 | 0.15 | 84 | 1015.5 |
| 20260506154832 | 55 | 128 | 5.0 | 10.0 | 0.00 | 0.00 | 0.15 | 83 | 1015.5 |
| 20260506154132 | 54 | 351 | 2.0 | 10.0 | 0.00 | 0.00 | 0.15 | 83 | 1015.5 |
| 20260506153432 | 54 | 42 | 0.0 | 10.0 | 0.00 | 0.00 | 0.14 | 83 | 1015.1 |
| 20260506152732 | 55 | 5 | 8.0 | 8.0 | 0.00 | 0.00 | 0.12 | 82 | 1014.8 |
| 20260506151332 | 55 | 348 | 2.0 | 8.0 | 0.00 | 0.00 | 0.00 | 79 | 1016.5 |
| 20260506150632 | 55 | 1 | 5.0 | 8.0 | 0.00 | 0.00 | 0.00 | 79 | 1016.5 |
| 20260506145932 | 55 | 4 | 2.0 | 8.0 | 0.00 | 0.00 | 0.00 | 79 | 1016.2 |
| 20260506145232 | 55 | 8 | 5.0 | 8.0 | 0.00 | 0.00 | 0.00 | 78 | 1015.8 |
| 20260506144532 | 56 | 10 | 0.0 | 8.0 | 0.00 | 0.00 | 0.00 | 77 | 1015.1 |
| 20260506143832 | 55 | 349 | 11.0 | 8.0 | 0.00 | 0.00 | 0.00 | 77 | 1015.1 |
| 20260506143132 | 56 | 351 | 5.0 | 8.0 | 0.00 | 0.00 | 0.00 | 77 | 1014.8 |
| 20260506142432 | 56 | 359 | 5.0 | 8.0 | 0.00 | 0.00 | 0.00 | 76 | 1015.1 |
| 20260506141732 | 56 | 8 | 2.0 | 8.0 | 0.00 | 0.00 | 0.00 | 76 | 1014.8 |
| 20260506141032 | 56 | 8 | 5.0 | 8.0 | 0.00 | 0.00 | 0.00 | 76 | 1014.8 |
| 20260506140332 | 56 | 355 | 5.0 | 8.0 | 0.00 | 0.00 | 0.00 | 76 | 1014.8 |
| 20260506134932 | 56 | 16 | 5.0 | 8.0 | 0.00 | 0.00 | 0.00 | 76 | 1014.5 |
| 20260506134232 | 56 | 347 | 5.0 | 8.0 | 0.00 | 0.00 | 0.00 | 75 | 1014.5 |
| 20260506133532 | 56 | 354 | 8.0 | 10.0 | 0.00 | 0.00 | 0.00 | 76 | 1014.1 |
| 20260506132832 | 56 | 357 | 5.0 | 10.0 | 0.00 | 0.00 | 0.00 | 75 | 1014.5 |
| 20260506132132 | 56 | 2 | 5.0 | 10.0 | 0.00 | 0.00 | 0.00 | 75 | 1014.1 |
| 20260506130732 | 56 | 5 | 5.0 | 12.0 | 0.00 | 0.00 | 0.00 | 75 | 1013.8 |
| 20260506125532 | 56 | 0 | 8.0 | 14.0 | 0.00 | 0.00 | 0.00 | 75 | 1013.8 |
| 20260506124832 | 56 | 347 | 11.0 | 14.0 | 0.00 | 0.00 | 0.00 | 75 | 1013.8 |
| 20260506124132 | 56 | 358 | 8.0 | 14.0 | 0.00 | 0.00 | 0.00 | 74 | 1013.5 |
| 20260506123432 | 56 | 8 | 8.0 | 14.0 | 0.00 | 0.00 | 0.00 | 74 | 1013.1 |
| 20260506122733 | 57 | 354 | 8.0 | 14.0 | 0.00 | 0.00 | 0.00 | 74 | 1013.5 |
| 20260506122032 | 57 | 334 | 8.0 | 14.0 | 0.00 | 0.00 | 0.00 | 74 | 1013.5 |
| 20260506120631 | 57 | 44 | 8.0 | 14.0 | 0.00 | 0.00 | 0.00 | 73 | 1013.5 |
| 20260506115231 | 57 | 343 | 8.0 | 10.0 | 0.00 | 0.00 | 0.00 | 72 | 1013.1 |
| 20260506114532 | 58 | 58 | 14.0 | 10.0 | 0.00 | 0.00 | 0.00 | 73 | 1013.1 |
| 20260506113831 | 58 | 335 | 8.0 | 10.0 | 0.00 | 0.00 | 0.00 | 72 | 1012.8 |
| 20260506113132 | 58 | 0 | 5.0 | 10.0 | 0.00 | 0.00 | 0.00 | 72 | 1012.4 |
| 20260506112432 | 58 | 8 | 2.0 | 10.0 | 0.00 | 0.00 | 0.00 | 72 | 1012.4 |
| 20260506111732 | 59 | 55 | 8.0 | 10.0 | 0.00 | 0.00 | 0.00 | 72 | 1012.4 |
| 20260506111031 | 59 | 8 | 5.0 | 8.0 | 0.00 | 0.00 | 0.00 | 72 | 1012.4 |
| 20260506110333 | 59 | 11 | 5.0 | 8.0 | 0.00 | 0.00 | 0.00 | 72 | 1012.1 |
| 20260506105631 | 59 | 2 | 5.0 | 8.0 | 0.00 | 0.00 | 0.00 | 72 | 1012.1 |
| 20260506104932 | 59 | 358 | 5.0 | 8.0 | 0.00 | 0.00 | 0.00 | 72 | 1012.1 |
| 20260506103531 | 60 | 5 | 5.0 | 8.0 | 0.00 | 0.00 | 0.00 | 72 | 1011.8 |
| 20260506102831 | 60 | 343 | 5.0 | 8.0 | 0.00 | 0.00 | 0.00 | 72 | 1011.8 |
| 20260506102131 | 60 | 358 | 2.0 | 8.0 | 0.00 | 0.00 | 0.00 | 72 | 1011.4 |
| 20260506101431 | 60 | 359 | 5.0 | 8.0 | 0.00 | 0.00 | 0.00 | 72 | 1011.4 |
| 20260506100731 | 60 | 7 | 2.0 | 8.0 | 0.00 | 0.00 | 0.00 | 72 | 1011.1 |
| 20260506100032 | 60 | 356 | 5.0 | 8.0 | 0.00 | 0.00 | 0.00 | 72 | 1011.1 |
| 20260506095331 | 60 | 0 | 5.0 | 6.0 | 0.00 | 0.00 | 0.00 | 72 | 1011.1 |
| 20260506094631 | 60 | 357 | 5.0 | 6.0 | 0.00 | 0.00 | 0.00 | 72 | 1010.7 |
| 20260506093231 | 60 | 342 | 8.0 | 6.0 | 0.00 | 0.00 | 0.00 | 72 | 1011.1 |
| 20260506092531 | 60 | 6 | 5.0 | 6.0 | 0.00 | 0.00 | 0.00 | 72 | 1011.1 |
| 20260506091831 | 60 | 9 | 2.0 | 6.0 | 0.00 | 0.00 | 0.00 | 72 | 1011.1 |
| 20260506091131 | 60 | 0 | 5.0 | 6.0 | 0.00 | 0.00 | 0.00 | 72 | 1010.7 |
| 20260506085031 | 61 | 355 | 8.0 | 6.0 | 0.00 | 0.00 | 0.00 | 72 | 1010.7 |
| 20260506084331 | 61 | 3 | 2.0 | 6.0 | 0.00 | 0.00 | 0.00 | 72 | 1010.4 |
| 20260506083631 | 61 | 349 | 5.0 | 6.0 | 0.00 | 0.00 | 0.00 | 72 | 1010.4 |
| 20260506082932 | 62 | 3 | 2.0 | 6.0 | 0.00 | 0.00 | 0.00 | 72 | 1010.4 |
| 20260506082231 | 61 | 354 | 5.0 | 6.0 | 0.00 | 0.00 | 0.00 | 72 | 1010.1 |
| 20260506081531 | 62 | 356 | 5.0 | 6.0 | 0.00 | 0.00 | 0.00 | 72 | 1010.1 |
| 20260506080831 | 62 | 6 | 0.0 | 6.0 | 0.00 | 0.00 | 0.00 | 72 | 1010.1 |
| 20260506080131 | 62 | 1 | 5.0 | 6.0 | 0.00 | 0.00 | 0.00 | 72 | 1010.1 |
| 20260506073331 | 62 | 18 | 5.0 | 6.0 | 0.00 | 0.00 | 0.00 | 72 | 1010.4 |
| 20260506071931 | 63 | 348 | 5.0 | 6.0 | 0.00 | 0.00 | 0.00 | 73 | 1010.4 |
| 20260506071231 | 63 | 7 | 2.0 | 6.0 | 0.00 | 0.00 | 0.00 | 73 | 1010.4 |
| 20260506070531 | 63 | 347 | 5.0 | 6.0 | 0.00 | 0.00 | 0.00 | 72 | 1010.4 |
| 20260506062331 | 64 | 4 | 5.0 | 8.0 | 0.00 | 0.00 | 0.00 | 72 | 1010.1 |
| 20260506061631 | 64 | 350 | 5.0 | 8.0 | 0.00 | 0.00 | 0.00 | 72 | 1010.4 |
| 20260506060933 | 64 | 8 | 5.0 | 8.0 | 0.00 | 0.00 | 0.00 | 72 | 1010.1 |
| 20260506060231 | 64 | 0 | 5.0 | 8.0 | 0.00 | 0.00 | 0.00 | 72 | 1010.4 |
| 20260506051331 | 67 | 1 | 8.0 | 10.0 | 0.00 | 0.00 | 0.00 | 72 | 1009.7 |
| 20260506050631 | 67 | 0 | 5.0 | 10.0 | 0.00 | 0.00 | 0.00 | 72 | 1010.1 |
| 20260506044531 | 68 | 10 | 5.0 | 10.0 | 0.00 | 0.00 | 0.23 | 71 | 1010.1 |
| 20260506043831 | 69 | 342 | 5.0 | 10.0 | 0.00 | 0.00 | 0.23 | 71 | 1010.1 |
| 20260506043131 | 69 | 11 | 5.0 | 10.0 | 0.00 | 0.00 | 0.23 | 71 | 1010.1 |
| 20260506042431 | 70 | 17 | 5.0 | 8.0 | 0.00 | 0.00 | 0.23 | 71 | 1009.4 |
| 20260506041731 | 70 | 14 | 8.0 | 8.0 | 0.00 | 0.00 | 0.23 | 72 | 1009.7 |
| 20260506041031 | 70 | 9 | 2.0 | 8.0 | 0.00 | 0.00 | 0.23 | 71 | 1009.4 |
| 20260506035632 | 71 | 2 | 5.0 | 8.0 | 0.00 | 0.00 | 0.23 | 71 | 1009.4 |
| 20260506034930 | 71 | 357 | 5.0 | 8.0 | 0.00 | 0.00 | 0.23 | 71 | 1009.4 |
| 20260506034231 | 72 | 1 | 5.0 | 8.0 | 0.00 | 0.00 | 0.23 | 72 | 1009.1 |
| 20260506033533 | 72 | 356 | 5.0 | 8.0 | 0.00 | 0.00 | 0.23 | 72 | 1008.7 |
| 20260506032831 | 72 | 29 | 8.0 | 8.0 | 0.00 | 0.00 | 0.23 | 71 | 1008.7 |
| 20260506031431 | 73 | 12 | 8.0 | 8.0 | 0.00 | 0.00 | 0.23 | 70 | 1008.7 |
| 20260506030731 | 73 | 8 | 5.0 | 8.0 | 0.00 | 0.00 | 0.23 | 70 | 1008.7 |
| 20260506030031 | 73 | 341 | 5.0 | 6.0 | 0.00 | 0.00 | 0.23 | 70 | 1008.7 |
| 20260506025331 | 73 | 349 | 2.0 | 6.0 | 0.00 | 0.00 | 0.23 | 71 | 1008.4 |
| 20260506024631 | 73 | 4 | 2.0 | 6.0 | 0.00 | 0.00 | 0.23 | 71 | 1008.0 |
| 20260506023931 | 73 | 353 | 8.0 | 6.0 | 0.00 | 0.00 | 0.23 | 71 | 1008.0 |
| 20260506023230 | 73 | 0 | 5.0 | 6.0 | 0.00 | 0.00 | 0.23 | 72 | 1007.4 |
| 20260506022531 | 73 | 3 | 2.0 | 6.0 | 0.00 | 0.00 | 0.23 | 72 | 1007.4 |
| 20260506021831 | 73 | 8 | 0.0 | 6.0 | 0.00 | 0.00 | 0.23 | 73 | 1007.0 |
| 20260506021130 | 73 | 8 | 0.0 | 6.0 | 0.00 | 0.00 | 0.23 | 73 | 1007.0 |
| 20260506020430 | 73 | 4 | 5.0 | 6.0 | 0.00 | 0.00 | 0.23 | 74 | 1007.0 |
| 20260506015735 | 73 | 3 | 0.0 | 4.0 | 0.00 | 0.00 | 0.23 | 76 | 1007.0 |
| 20260506015030 | 73 | 6 | 2.0 | 4.0 | 0.00 | 0.00 | 0.23 | 76 | 1007.0 |
| 20260506014331 | 73 | 8 | 5.0 | 4.0 | 0.00 | 0.00 | 0.23 | 78 | 1007.0 |
| 20260506013630 | 73 | 6 | 2.0 | 4.0 | 0.00 | 0.00 | 0.23 | 79 | 1006.3 |
| 20260506012931 | 73 | 5 | 0.0 | 4.0 | 0.00 | 0.00 | 0.23 | 79 | 1006.3 |
| 20260506011530 | 73 | 4 | 0.0 | 4.0 | 0.00 | 0.00 | 0.23 | 80 | 1006.7 |
| 20260506010830 | 73 | 4 | 0.0 | 4.0 | 0.00 | 0.00 | 0.23 | 80 | 1006.3 |
| 20260506010130 | 73 | 8 | 0.0 | 4.0 | 0.00 | 0.00 | 0.23 | 79 | 1006.0 |
| 20260506005430 | 73 | 5 | 0.0 | 6.0 | 0.00 | 0.00 | 0.23 | 78 | 1005.7 |
| 20260506004030 | 74 | 8 | 0.0 | 8.0 | 0.00 | 0.00 | 0.23 | 77 | 1006.0 |
| 20260506003330 | 75 | 2 | 0.0 | 8.0 | 0.00 | 0.00 | 0.23 | 76 | 1006.0 |
| 20260506001930 | 77 | 10 | 0.0 | 12.0 | 0.00 | 0.00 | 0.22 | 71 | 1006.0 |
| 20260506000530 | 82 | 13 | 0.0 | 14.0 | 0.00 | 0.00 | 0.18 | 64 | 1006.0 |
| 20260505235831 | 84 | 5 | 2.0 | 14.0 | 0.00 | 0.00 | 0.02 | 62 | 1005.3 |
| 20260505235133 | 85 | 86 | 11.0 | 14.0 | 0.00 | 0.00 | 0.00 | 65 | 1004.7 |
| 20260505234433 | 85 | 19 | 2.0 | 14.0 | 0.00 | 0.00 | 0.00 | 64 | 1005.0 |
| 20260505232333 | 87 | 25 | 8.0 | 14.0 | 0.00 | 0.00 | 0.00 | 62 | 1005.0 |
| 20260505231633 | 87 | 352 | 8.0 | 14.0 | 0.00 | 0.00 | 0.00 | 61 | 1004.7 |
| 20260505230933 | 88 | 24 | 11.0 | 14.0 | 0.00 | 0.00 | 0.00 | 61 | 1004.7 |
| 20260505230233 | 88 | 55 | 5.0 | 10.0 | 0.00 | 0.00 | 0.00 | 60 | 1004.7 |
| 20260505225533 | 88 | 32 | 8.0 | 10.0 | 0.00 | 0.00 | 0.00 | 60 | 1004.3 |
| 20260505224833 | 89 | 0 | 8.0 | 10.0 | 0.00 | 0.00 | 0.00 | 59 | 1004.7 |
| 20260505224133 | 89 | 18 | 8.0 | 8.0 | 0.00 | 0.00 | 0.00 | 59 | 1004.3 |
| 20260505223433 | 89 | 15 | 0.0 | 8.0 | 0.00 | 0.00 | 0.00 | 57 | 1004.3 |
| 20260505222733 | 90 | 10 | 5.0 | 8.0 | 0.00 | 0.00 | 0.00 | 57 | 1004.3 |
| 20260505222033 | 90 | 5 | 5.0 | 8.0 | 0.00 | 0.00 | 0.00 | 56 | 1004.3 |
| 20260505221333 | 90 | 1 | 5.0 | 8.0 | 0.00 | 0.00 | 0.00 | 56 | 1004.3 |
| 20260505220633 | 90 | 11 | 0.0 | 8.0 | 0.00 | 0.00 | 0.00 | 55 | 1004.3 |
| 20260505215933 | 90 | 26 | 2.0 | 8.0 | 0.00 | 0.00 | 0.00 | 55 | 1004.3 |
| 20260505215233 | 91 | 20 | 8.0 | 8.0 | 0.00 | 0.00 | 0.00 | 54 | 1004.3 |
| 20260505214533 | 91 | 8 | 5.0 | 10.0 | 0.00 | 0.00 | 0.00 | 54 | 1004.3 |
| 20260505213833 | 90 | 6 | 2.0 | 10.0 | 0.00 | 0.00 | 0.00 | 54 | 1004.3 |
| 20260505213133 | 91 | 13 | 2.0 | 10.0 | 0.00 | 0.00 | 0.00 | 54 | 1004.7 |
| 20260505212433 | 92 | 46 | 5.0 | 10.0 | 0.00 | 0.00 | 0.00 | 54 | 1004.7 |
| 20260505211033 | 91 | 7 | 5.0 | 17.0 | 0.00 | 0.00 | 0.00 | 55 | 1004.7 |
| 20260505210333 | 91 | 346 | 5.0 | 17.0 | 0.00 | 0.00 | 0.00 | 55 | 1004.7 |
| 20260505205634 | 91 | 355 | 2.0 | 17.0 | 0.00 | 0.00 | 0.00 | 56 | 1005.0 |
| 20260505204933 | 91 | 31 | 5.0 | 17.0 | 0.00 | 0.00 | 0.00 | 55 | 1005.0 |
| 20260505203533 | 91 | 3 | 2.0 | 17.0 | 0.00 | 0.00 | 0.00 | 55 | 1005.0 |
| 20260505202833 | 91 | 3 | 5.0 | 17.0 | 0.00 | 0.00 | 0.00 | 57 | 1005.3 |
| 20260505202133 | 90 | 8 | 5.0 | 17.0 | 0.00 | 0.00 | 0.00 | 57 | 1005.3 |
| 20260505201433 | 90 | 27 | 5.0 | 17.0 | 0.00 | 0.00 | 0.00 | 59 | 1005.3 |
| 20260505200033 | 89 | 9 | 0.0 | 17.0 | 0.00 | 0.00 | 0.00 | 59 | 1005.7 |
| 20260505195333 | 89 | 58 | 5.0 | 17.0 | 0.00 | 0.00 | 0.00 | 60 | 1005.7 |
| 20260505194633 | 89 | 18 | 5.0 | 17.0 | 0.00 | 0.00 | 0.00 | 62 | 1005.3 |
| 20260505193933 | 88 | 69 | 5.0 | 17.0 | 0.00 | 0.00 | 0.00 | 62 | 1005.7 |
| 20260505193232 | 88 | 294 | 5.0 | 17.0 | 0.00 | 0.00 | 0.00 | 62 | 1005.7 |
| 20260505192533 | 88 | 6 | 5.0 | 17.0 | 0.00 | 0.00 | 0.00 | 63 | 1005.7 |
| 20260505191833 | 87 | 6 | 5.0 | 17.0 | 0.00 | 0.00 | 0.00 | 63 | 1005.7 |